This is the latest recevied weather packets stored in our database for station/object W0CHP-13. If no packets are shown the sender has not sent any weather packets the latest 10 day(s).
| Time | Temp. | Humidity | Pressure | Rain* | Wind** | Luminosity | Snow |
|---|---|---|---|---|---|---|---|
| 1778071397 | 5.56° C | 51% | 1013.7 hPa | 0 mm | - | 90 W/m² | - |
| 1778070795 | 5° C | 54% | 1014.1 hPa | 0 mm | - | 43 W/m² | - |
| 1778070197 | 4.44° C | 55% | 1013.7 hPa | 0 mm | - | 33 W/m² | - |
| 1778069595 | 3.89° C | 57% | 1013.7 hPa | 0 mm | - | 31 W/m² | - |
| 1778068998 | 3.33° C | 56% | 1013.4 hPa | 0 mm | - | 28 W/m² | - |
| 1778068396 | 3.33° C | 56% | 1013.4 hPa | 0 mm | - | 25 W/m² | - |
| 1778067798 | 3.33° C | 56% | 1013.4 hPa | 0 mm | - | 22 W/m² | - |
| 1778067196 | 3.33° C | 56% | 1013.4 hPa | 0 mm | - | 18 W/m² | - |
| 1778066598 | 3.33° C | 56% | 1013.2 hPa | 0 mm | - | 14 W/m² | - |
| 1778065997 | 3.33° C | 55% | 1013 hPa | 0 mm | - | 10 W/m² | - |
| 1778065399 | 3.89° C | 54% | 1013 hPa | 0 mm | - | 6 W/m² | - |
| 1778064797 | 3.89° C | 54% | 1012.9 hPa | 0 mm | - | 3 W/m² | - |
| 1778064195 | 3.89° C | 54% | 1012.7 hPa | 0 mm | - | 1 W/m² | - |
| 1778063597 | 3.89° C | 54% | 1012.3 hPa | 0 mm | - | 0 W/m² | - |
| 1778062995 | 3.89° C | 54% | 1012.3 hPa | 0 mm | - | 0 W/m² | - |
| 1778062397 | 3.89° C | 53% | 1012.7 hPa | 0 mm | - | 0 W/m² | - |
| 1778061796 | 4.44° C | 53% | 1012.5 hPa | 0 mm | - | 0 W/m² | - |
| 1778061198 | 4.44° C | 53% | 1012.5 hPa | 0 mm | - | 0 W/m² | - |
| 1778060596 | 4.44° C | 53% | 1012.3 hPa | 0 mm | - | 0 W/m² | - |
| 1778059998 | 4.44° C | 53% | 1012.1 hPa | 0 mm | - | 0 W/m² | - |
| 1778059396 | 5° C | 53% | 1012 hPa | 0 mm | - | 0 W/m² | - |
| 1778058799 | 5° C | 54% | 1012 hPa | 0 mm | - | 0 W/m² | - |
| 1778058197 | 5° C | 51% | 1012 hPa | 0 mm | - | 0 W/m² | - |
| 1778057595 | 5° C | 51% | 1012 hPa | 0 mm | - | 0 W/m² | - |
| 1778056997 | 5° C | 50% | 1012 hPa | 0 mm | - | 0 W/m² | - |
* Rain latest hour (hover to see other rain measurements)
** Current wind speed in m/s (hover to see current wind gust speed)